EHI
50 67 86 95 99 100 100 100 100 98 96 94 92 86 78 67 54 41 31 22 13 8 7 5 3 2 1 0 0 0 0 0 0 0 0 0 0 0 0 0 0 0 0
55 70 85 93 98 100 100 100 99 97 95 92 88 81 71 55 39 28 20 13 7 4 3 2 1 1 0 0 0 0 0 0 0 0 0 0 0 0 0 0 0 0 0
60 71 85 93 98 100 100 100 98 95 92 88 80 70 55 35 20 12 8 5 2 0 0 0 0 0 0 0 0 0 0 0 0 0 0 0 0 0 0 0 0 0 0
61 71 85 94 97 98 97 96 93 89 86 80 71 58 40 22 10 5 4 2 1 0 0 0 0 0 0 0 0 0 0 0 0 0 0 0 0 0 0 0 0 0 0
59 71 86 93 95 92 88 84 79 74 69 65 58 46 31 17 8 3 2 1 0 0 0 0 0 0 0 0 0 0 0 0 0 0 0 0 0 0 0 0 0 0 0
61 73 86 89 87 80 72 66 60 52 46 42 38 30 21 12 6 2 1 0 0 0 0 0 0 0 0 0 0 0 0 0 0 0 0 0 0 0 0 0 0 0 0
68 76 84 81 72 61 53 46 39 32 27 23 19 15 11 6 3 1 0 0 0 0 0 0 0 0 0 0 0 0 0 0 0 0 0 0 0 0 0 0 0 0 0
72 76 78 69 53 41 34 28 22 18 15 12 9 7 5 2 1 0 0 0 0 0 0 0 0 0 0 0 0 0 0 0 0 0 0 0 0 0 0 0 0 0 0
73 74 70 55 37 26 21 16 12 9 8 6 5 3 2 0 0 0 0 0 0 0 0 0 0 0 0 0 0 0 0 0 0 0 0 0 0 0 0 0 0 0 0
73 70 60 43 26 18 13 10 6 4 4 3 3 1 0 0 0 0 0 0 0 0 0 0 0 0 0 0 0 0 0 0 0 0 0 0 0 0 0 0 0 0 0
67 62 49 30 17 11 7 4 2 1 1 1 1 0 0 0 0 0 0 0 0 0 0 0 0 0 0 0 0 0 0 0 0 0 0 0 0 0 0 0 0 0 0
55 49 34 18 9 5 2 1 0 0 0 0 0 0 0 0 0 0 0 0 0 0 0 0 0 0 0 0 0 0 0 0 0 0 0 0 0 0 0 0 0 0 0
40 33 21 11 6 2 0 0 0 0 0 0 0 0 0 0 0 0 0 0 0 0 0 0 0 0 0 0 0 0 0 0 0 0 0 0 0 0 0 0 0 0 0
30 25 16 9 5 1 0 0 0 0 0 0 0 0 0 0 0 0 0 0 0 0 0 0 0 0 0 0 0 0 0 0 0 0 0 0 0 0 0 0 0 0 0
26 20 13 8 4 1 0 0 0 0 0 0 0 0 0 0 0 0 0 0 0 0 0 0 0 0 0 0 0 0 0 0 0 0 0 0 0 0 0 0 0 0 0
20 14 8 4 2 1 0 0 0 0 0 0 0 0 0 0 0 0 0 0 0 0 0 0 0 0 0 0 0 0 0 0 0 0 0 0 0 0 0 0 0 0 0
10 7 3 1 1 0 0 0 0 0 0 0 0 0 0 0 0 0 0 0 0 0 0 0 0 0 0 0 0 0 0 0 0 0 0 0 0 0 0 0 0 0 0
2 1 0 0 0 0 0 0 0 0 0 0 0 0 0 0 0 0 0 0 0 0 0 0 0 0 0 0 0 0 0 0 0 0 0 0 0 0 0 0 0 0 0
0 0 0 0 0 0 0 0 0 0 0 0 0 0 0 0 0 0 0 0 0 0 0 0 0 0 0 0 0 0 0 0 0 0 0 0 0 0 0 0 0 0 0
0 0 0 0 0 0 0 0 0 0 0 0 0 0 0 0 0 0 0 0 0 0 0 0 0 0 0 0 0 0 0 0 0 0 0 0 0 0 0 0 0 0 0
0 0 0 0 0 0 0 0 0 0 0 0 0 0 0 0 0 0 0 0 0 0 0 0 0 0 0 0 0 0 0 0 0 0 0 0 0 0 0 0 0 0 0
0 0 0 0 0 0 0 0 0 0 0 0 0 0 0 0 0 0 0 0 0 0 0 0 0 0 0 0 0 0 0 0 0 0 0 0 0 0 0 0 0 0 0
0 0 0 0 0 0 0 0 0 0 0 0 0 0 0 0 0 0 0 0 0 0 0 0 0 0 0 0 0 0 0 0 0 0 0 0 0 0 0 0 0 0 0
0 0 0 0 0 0 0 0 0 0 0 0 0 0 0 0 0 0 0 0 0 0 0 0 0 0 0 0 0 0 0 0 0 0 0 0 0 0 0 0 0 0 0
0 0 0 0 0 0 0 0 0 0 0 0 0 0 0 0 0 0 0 0 0 0 0 0 0 0 0 0 0 0 0 0 0 0 0 0 0 0 0 0 0 0 0
0 0 0 0 0 0 0 0 0 0 0 0 0 0 0 0 0 0 0 0 0 0 0 0 0 0 0 0 0 0 0 0 0 0 0 0 0 0 0 0 0 0 0
Wind_Speed
7 8 12 15 14 12 12 10 10 10 8 7 7 6 6 5 5 6 6 6 6 6 5 5 3 3 3 3 3 3 4 3 2 3 4 5 6 7 5 4 2 1 1
6 10 11 13 14 13 12 10 9 10 8 6 4 5 6 5 6 6 5 6 6 4 5 4 2 3 2 1 1 1 2 3 3 3 4 4 5 4 4 3 2 3 3
10 13 14 14 14 13 12 10 9 9 7 7 5 6 5 6 6 6 4 5 5 5 4 4 4 3 1 1 0 1 2 3 4 2 2 3 3 5 4 5 4 4 3
12 13 15 14 13 12 10 9 9 8 7 7 7 9 7 7 7 6 5 5 4 4 4 4 3 2 2 2 2 4 3 3 4 3 2 2 2 2 4 5 5 5 5
12 14 14 14 13 11 10 9 9 8 7 6 6 6 5 5 5 6 6 5 4 4 4 4 3 2 1 3 3 2 3 3 3 3 4 4 3 4 5 7 5 5 5
10 12 13 14 13 11 10 9 9 8 6 6 5 5 6 7 7 6 5 4 4 4 4 5 3 1 1 2 1 1 2 1 2 3 3 4 4 4 5 7 7 6 5
11 14 16 15 13 13 11 10 10 8 7 7 6 6 7 7 6 5 4 2 3 5 5 4 2 1 1 1 1 2 2 2 2 2 3 3 3 4 5 6 8 9 7
11 14 16 15 13 13 12 11 10 9 7 7 7 6 6 4 4 3 3 1 3 6 5 3 1 0 1 2 1 2 3 2 2 5 4 3 4 4 4 5 8 10 9
12 15 16 15 13 12 11 11 10 9 8 7 6 5 4 5 6 3 2 3 3 3 4 2 1 1 1 2 3 3 4 3 4 4 5 4 4 4 4 4 5 9 13
12 14 15 13 12 11 10 10 9 9 8 7 6 6 5 5 4 3 5 5 3 3 1 0 1 1 2 3 3 4 4 4 4 4 5 5 5 4 4 5 5 6 10
14 14 13 13 12 12 11 10 9 8 7 6 5 6 5 5 4 3 3 3 3 2 1 1 2 3 3 3 4 5 5 6 5 6 6 6 6 5 5 5 5 6 7
14 15 15 14 13 12 11 10 8 7 6 6 6 6 5 4 3 3 4 3 1 1 2 2 3 4 4 3 4 5 5 5 6 6 7 7 7 6 5 5 6 6 7
13 14 14 14 13 12 10 9 7 6 6 7 7 5 4 3 4 4 3 2 1 2 3 4 4 4 4 4 4 5 6 7 8 8 8 8 8 8 6 6 7 7 8
8 12 13 13 13 12 11 9 7 6 7 7 6 6 5 4 3 2 2 2 2 2 3 4 4 5 6 8 9 9 9 9 9 9 9 9 8 8 7 7 7 7 8
7 10 12 12 12 12 11 10 9 9 8 8 7 6 4 2 2 2 2 2 3 4 4 5 6 6 7 8 9 9 10 9 10 10 10 10 13 14 10 9 8 8 8
8 10 12 13 12 12 12 11 11 9 8 8 6 4 3 2 3 3 2 3 4 5 6 6 7 7 6 6 9 9 9 10 10 10 10 11 12 12 13 16 16 14 12
10 12 12 11 11 11 11 11 10 8 7 6 4 2 1 1 2 3 4 5 5 5 5 5 5 5 5 4 5 10 10 10 9 9 9 10 11 12 9 12 16 15 16
13 13 13 13 12 12 11 9 8 6 5 3 2 1 1 2 3 5 6 6 5 4 4 5 5 4 2 1 5 11 10 9 9 9 10 10 10 11 10 11 12 11 11
13 13 13 13 12 10 8 7 6 5 4 3 3 3 4 5 6 6 5 5 4 4 4 5 5 5 1 2 5 8 10 8 10 11 11 11 11 12 13 12 11 11 9
12 12 12 11 10 7 6 6 5 4 4 4 4 4 4 4 6 5 5 5 4 4 5 5 5 5 4 3 5 8 8 9 10 10 10 11 10 13 13 10 8 8 7
12 11 10 8 7 5 4 5 5 5 4 4 5 4 3 3 5 4 4 4 5 4 4 5 4 4 5 6 7 10 8 9 10 9 8 7 11 12 12 9 6 6 6
10 9 7 6 4 4 5 6 5 5 4 5 5 4 4 5 5 4 3 4 5 4 4 5 5 5 5 7 10 13 13 12 10 8 7 7 11 11 10 7 7 8 5
8 7 7 6 5 4 5 6 5 4 4 5 4 4 5 5 5 5 5 5 4 5 5 6 6 6 6 8 12 14 15 14 9 7 10 11 10 9 6 7 8 6 4
8 6 7 6 6 6 6 5 5 4 4 3 2 3 4 5 5 4 5 5 6 6 6 6 6 6 7 8 9 9 9 11 9 7 8 9 7 6 5 5 4 3 4
6 6 6 7 7 6 6 6 5 4 3 3 3 4 5 4 4 5 5 6 6 5 5 6 6 6 7 10 13 9 8 8 8 8 5 4 5 5 4 4 4 4 4
6 6 7 7 8 8 7 6 5 5 4 4 4 4 4 4 4 4 4 4 4 3 1 3 5 5 7 12 14 15 14 13 13 7 5 5 5 5 5 5 5 5 5
Wind_Direction
189 162 152 154 150 149 154 158 160 154 157 158 162 153 142 130 114 107 101 89 79 69 52 79 77 50 60 51 27 16 337 310 300 302 295 282 271 262 256 262 259 274 312
168 145 155 157 155 155 156 159 160 159 165 156 151 144 136 129 112 102 99 98 91 85 87 74 69 65 64 67 45 19 319 314 332 316 311 304 297 333 348 358 352 355 359
177 163 166 160 158 158 160 163 160 157 160 144 134 126 114 118 121 124 116 104 107 99 85 78 61 39 349 94 15 350 338 329 321 312 318 313 325 341 322 351 353 344 322
186 175 164 159 157 154 151 150 148 146 143 143 153 155 157 153 142 136 128 123 118 115 111 99 85 43 354 42 1 55 351 330 312 325 345 327 339 308 311 315 312 316 314
189 170 162 154 147 145 141 134 130 130 138 147 151 153 145 130 122 118 131 137 133 136 125 113 95 52 360 58 32 17 345 329 337 344 342 333 319 280 274 293 304 306 295
169 151 145 136 133 130 129 130 128 127 131 131 130 130 128 125 129 135 149 162 154 151 130 119 95 24 34 59 23 341 293 307 350 336 323 318 315 318 314 306 303 299 302
143 136 138 136 136 135 132 132 131 127 125 123 118 114 115 119 128 137 148 182 153 130 107 92 83 28 44 313 286 281 277 290 297 286 284 298 306 306 303 302 302 300 299
135 138 138 137 138 139 138 139 137 128 122 116 113 115 130 135 119 93 123 109 65 93 112 104 114 240 285 300 345 301 281 252 246 266 272 272 275 280 289 293 299 297 295
140 137 135 136 140 142 143 143 135 126 122 118 114 112 102 95 104 103 75 90 74 105 103 113 166 242 281 294 295 278 289 280 260 263 267 262 270 276 277 281 286 291 294
116 124 129 132 134 134 131 126 126 125 122 123 130 121 106 105 116 108 77 71 69 60 62 3 299 275 267 263 265 277 274 274 266 262 266 268 267 270 272 273 278 280 285
120 123 125 125 125 127 128 127 126 125 125 124 111 106 102 101 102 99 107 96 74 51 319 294 282 271 265 266 265 269 278 279 281 283 284 282 280 275 275 275 275 277 282
122 128 129 128 130 131 131 128 124 121 118 109 98 91 86 87 93 87 76 71 74 312 303 304 298 298 302 302 293 296 307 313 312 308 303 296 293 288 284 277 276 277 274
118 128 132 134 135 134 130 124 119 115 108 103 98 94 93 81 63 64 59 25 2 329 323 322 320 314 312 321 340 349 347 337 326 318 311 306 301 294 289 284 281 278 278
120 132 133 134 134 129 125 118 106 94 90 89 88 78 66 58 47 39 25 356 341 322 319 318 327 342 13 31 23 10 353 341 329 319 311 303 297 294 292 289 281 281 280
112 125 127 126 125 120 113 105 92 81 79 78 75 67 55 36 11 2 351 346 340 342 2 6 10 22 53 41 25 359 346 333 318 310 304 301 301 297 289 286 284 284 282
93 112 117 118 119 115 110 101 91 83 77 76 73 63 37 13 343 333 358 11 20 28 27 25 24 30 50 56 27 359 335 317 307 304 303 301 296 299 298 294 291 285 282
81 95 101 102 102 102 102 98 94 88 85 82 80 71 18 347 356 6 39 41 36 32 24 23 30 47 80 55 356 339 320 306 302 303 304 306 307 309 304 303 301 293 286
71 82 89 91 93 94 93 93 93 94 97 100 98 62 20 33 43 48 45 41 30 22 10 28 26 24 68 360 322 325 317 309 308 308 307 308 309 312 316 310 300 292 287
77 82 88 93 93 92 95 98 97 100 102 95 76 54 45 49 55 51 39 35 20 19 15 32 12 1 24 244 310 328 322 316 318 316 314 313 313 317 317 309 299 295 293
83 89 91 93 94 94 97 102 105 105 100 92 80 74 67 65 65 53 35 22 16 23 16 15 0 350 354 352 340 335 326 323 320 314 313 316 323 324 322 315 306 303 304
92 93 94 95 99 105 106 104 105 98 93 92 86 72 58 90 85 67 48 25 13 22 18 7 356 359 359 3 2 339 332 328 318 314 318 324 333 332 331 330 331 327 320
98 100 100 101 107 114 109 100 92 91 92 90 87 74 46 45 67 63 52 38 11 17 22 6 0 2 359 5 352 338 329 324 318 317 323 327 331 332 335 341 343 342 337
110 112 113 114 116 115 109 101 103 107 103 95 92 90 86 73 49 43 43 36 25 21 17 7 1 358 354 356 351 338 330 329 328 323 326 327 329 332 333 343 343 341 346
123 126 121 115 110 105 95 91 91 90 93 95 105 106 95 90 74 50 43 43 28 20 14 7 359 356 352 355 347 337 333 336 336 332 326 325 325 329 326 333 344 355 7
132 128 120 111 104 100 93 88 83 78 75 67 67 83 81 75 78 70 47 48 62 42 17 6 353 355 353 342 332 337 340 340 336 328 334 350 351 357 1 3 4 10 11
133 124 114 105 98 92 82 71 64 54 37 42 47 67 72 61 69 93 109 80 90 131 88 351 345 355 353 339 344 348 349 351 349 356 360 1 360 3 5 6 12 18 12